Torna al catalogo

GEOTAIL

AttivoScienzaHEO
NORAD 22049·PAYLOAD·🇯🇵 Japan

Lanciato Jul 24, 1992 da Cape Canaveral Space Force Station

Loading…

Prossimi Passaggi (prossime 24 ore)

TLE

In scadenzaSource: Space-Track

Epoca: Sep 3, 2026, 02:11 UTC

1 22049U 92044A   26246.09134355 -.00000793  00000-0  00000-0 0  9996
2 22049  45.5136 340.2822 5647478 285.2595   2.0262  0.19146871 15916

Traccia GEOTAIL in tempo reale con AllMySat

Download on the App Store